LNTER ENRI-ENRK

Flight info

Callsign LNTER
Flight time 0h 56m
Altitude 7000
Route OGPAL DCT DIDAX
Aircraft C208/L-SDFGRY/C

Departure

Time 2026-05-07 11:27
Airport Ringebu Airfield Frya (ENRI)

Arrival

Time 2026-05-07 12:24
Airport Rakkestad Astorp Airfield (ENRK)
Time Latitude Longitude Altitude Speed Heading
2026-05-07 11:05 61.54506 10.06255 647 ft 0 kts 94°
2026-05-07 11:23 61.54512 10.06288 647 ft 7 kts 23°
2026-05-07 11:23 61.54550 10.06292 650 ft 4 kts 277°
2026-05-07 11:23 61.54565 10.06127 650 ft 14 kts 279°
2026-05-07 11:24 61.54578 10.05971 651 ft 17 kts 279°
2026-05-07 11:24 61.54586 10.05866 652 ft 9 kts 278°
2026-05-07 11:24 61.54601 10.05716 655 ft 9 kts 302°
2026-05-07 11:24 61.54602 10.05718 655 ft 9 kts 92°
2026-05-07 11:25 61.54596 10.05772 654 ft 0 kts 104°
2026-05-07 11:26 61.54591 10.05831 653 ft 14 kts 99°
2026-05-07 11:26 61.54547 10.06339 653 ft 65 kts 101°
2026-05-07 11:27 61.54449 10.07554 900 ft 86 kts 95°
2026-05-07 11:27 61.54453 10.08775 1313 ft 89 kts 81°
2026-05-07 11:27 61.54541 10.10133 1630 ft 95 kts 79°
2026-05-07 11:27 61.54594 10.11576 1875 ft 113 kts 89°
2026-05-07 11:28 61.54455 10.13314 2111 ft 124 kts 108°
2026-05-07 11:28 61.54084 10.14875 2509 ft 124 kts 120°
2026-05-07 11:28 61.53373 10.16132 2597 ft 142 kts 150°
2026-05-07 11:28 61.52498 10.17217 2801 ft 148 kts 149°
2026-05-07 11:29 61.51616 10.18364 3035 ft 150 kts 149°
2026-05-07 11:29 61.50729 10.19544 3284 ft 152 kts 149°
2026-05-07 11:29 61.49830 10.20715 3498 ft 152 kts 149°
2026-05-07 11:29 61.48947 10.21865 3701 ft 152 kts 150°
2026-05-07 11:30 61.48049 10.23054 3901 ft 154 kts 150°
2026-05-07 11:30 61.47071 10.23820 4095 ft 150 kts 168°
2026-05-07 11:30 61.46064 10.24342 4300 ft 148 kts 168°
2026-05-07 11:30 61.45060 10.24558 4471 ft 142 kts 191°
2026-05-07 11:31 61.44205 10.23720 4680 ft 137 kts 217°
2026-05-07 11:31 61.43369 10.22712 4892 ft 142 kts 201°
2026-05-07 11:31 61.42418 10.22168 5122 ft 141 kts 197°
2026-05-07 11:31 61.41491 10.21627 5352 ft 139 kts 198°
2026-05-07 11:32 61.39591 10.20858 5826 ft 141 kts 179°
2026-05-07 11:32 61.38614 10.20879 6062 ft 139 kts 182°
2026-05-07 11:32 61.37634 10.20838 6295 ft 141 kts 181°
2026-05-07 11:33 61.36646 10.20828 6534 ft 142 kts 182°
2026-05-07 11:33 61.35658 10.20815 6755 ft 142 kts 181°
2026-05-07 11:33 61.34675 10.20811 6982 ft 141 kts 181°
2026-05-07 11:33 61.33690 10.20814 7217 ft 142 kts 181°
2026-05-07 11:34 61.32711 10.20815 7440 ft 142 kts 181°
2026-05-07 11:34 61.31716 10.20815 7672 ft 144 kts 181°
2026-05-07 11:34 61.30717 10.20822 7904 ft 144 kts 181°
2026-05-07 11:34 61.29716 10.20833 8138 ft 144 kts 181°
2026-05-07 11:35 61.28694 10.20856 8187 ft 156 kts 181°
2026-05-07 11:35 61.27563 10.20881 8065 ft 168 kts 180°
2026-05-07 11:35 61.26382 10.20912 8048 ft 168 kts 181°
2026-05-07 11:35 61.25218 10.20971 8081 ft 168 kts 180°
2026-05-07 11:36 61.24049 10.20906 8070 ft 167 kts 191°
2026-05-07 11:36 61.22986 10.20057 8079 ft 164 kts 207°
2026-05-07 11:36 61.21920 10.19279 8084 ft 166 kts 196°
2026-05-07 11:36 61.20771 10.19159 8085 ft 168 kts 172°
2026-05-07 11:37 61.19654 10.19913 8090 ft 171 kts 161°
2026-05-07 11:37 61.18547 10.20826 8084 ft 171 kts 161°
2026-05-07 11:37 61.17431 10.21680 8080 ft 171 kts 162°
2026-05-07 11:37 61.16313 10.22520 8081 ft 171 kts 162°
2026-05-07 11:38 61.15192 10.23363 8076 ft 172 kts 162°
2026-05-07 11:38 61.14076 10.24199 8078 ft 171 kts 161°
2026-05-07 11:38 61.12974 10.25027 8076 ft 171 kts 162°
2026-05-07 11:38 61.11857 10.25879 8080 ft 172 kts 162°
2026-05-07 11:39 61.10739 10.26712 8074 ft 170 kts 163°
2026-05-07 11:39 61.09624 10.27542 8080 ft 169 kts 163°
2026-05-07 11:39 61.08518 10.28365 8074 ft 168 kts 162°
2026-05-07 11:39 61.07419 10.29191 8066 ft 168 kts 162°
2026-05-07 11:40 61.06324 10.30011 8066 ft 167 kts 161°
2026-05-07 11:40 61.05236 10.30824 8066 ft 167 kts 162°
2026-05-07 11:40 61.04141 10.31643 8066 ft 169 kts 162°
2026-05-07 11:40 61.03021 10.32483 7989 ft 173 kts 162°
2026-05-07 11:41 61.01897 10.33324 7993 ft 172 kts 161°
2026-05-07 11:41 61.00791 10.34147 7989 ft 173 kts 162°
2026-05-07 11:41 60.99664 10.34992 7986 ft 172 kts 161°
2026-05-07 11:41 60.98535 10.35829 7975 ft 172 kts 163°
2026-05-07 11:42 60.97418 10.36660 7973 ft 170 kts 162°
2026-05-07 11:42 60.96303 10.37484 7978 ft 171 kts 163°
2026-05-07 11:42 60.95180 10.38318 7976 ft 172 kts 162°
2026-05-07 11:42 60.94059 10.39158 7974 ft 171 kts 161°
2026-05-07 11:43 60.92958 10.39977 7974 ft 170 kts 161°
2026-05-07 11:43 60.91846 10.40790 7973 ft 170 kts 161°
2026-05-07 11:43 60.90732 10.41613 7972 ft 170 kts 161°
2026-05-07 11:43 60.89614 10.42447 7977 ft 171 kts 161°
2026-05-07 11:44 60.88489 10.43282 7970 ft 173 kts 161°
2026-05-07 11:44 60.87365 10.44105 7978 ft 171 kts 161°
2026-05-07 11:44 60.86242 10.44936 7977 ft 172 kts 161°
2026-05-07 11:44 60.85118 10.45770 7974 ft 171 kts 161°
2026-05-07 11:45 60.83999 10.46597 7973 ft 170 kts 161°
2026-05-07 11:45 60.82881 10.47415 7973 ft 171 kts 161°
2026-05-07 11:45 60.81766 10.48237 7972 ft 171 kts 161°
2026-05-07 11:45 60.80663 10.49049 7974 ft 171 kts 161°
2026-05-07 11:46 60.79546 10.49868 7973 ft 170 kts 161°
2026-05-07 11:46 60.78424 10.50691 7970 ft 171 kts 161°
2026-05-07 11:46 60.77304 10.51513 7972 ft 171 kts 161°
2026-05-07 11:46 60.76185 10.52336 7972 ft 171 kts 161°
2026-05-07 11:47 60.75068 10.53157 7977 ft 170 kts 161°
2026-05-07 11:47 60.73950 10.53976 7974 ft 171 kts 161°
2026-05-07 11:47 60.72843 10.54783 7978 ft 171 kts 161°
2026-05-07 11:47 60.71721 10.55605 7973 ft 172 kts 161°
2026-05-07 11:48 60.70596 10.56424 7976 ft 171 kts 161°
2026-05-07 11:48 60.69475 10.57238 7974 ft 171 kts 162°
2026-05-07 11:48 60.68355 10.58055 7974 ft 171 kts 161°
2026-05-07 11:48 60.67245 10.58883 7976 ft 170 kts 161°
2026-05-07 11:49 60.66122 10.59692 7975 ft 172 kts 161°
2026-05-07 11:49 60.64996 10.60506 7973 ft 171 kts 161°
2026-05-07 11:49 60.63881 10.61303 7971 ft 172 kts 162°
2026-05-07 11:49 60.62758 10.62138 7976 ft 172 kts 161°
2026-05-07 11:50 60.61634 10.62957 7976 ft 170 kts 161°
2026-05-07 11:50 60.60516 10.63760 7976 ft 171 kts 161°
2026-05-07 11:50 60.59389 10.64575 7980 ft 173 kts 162°
2026-05-07 11:50 60.58249 10.65413 7977 ft 175 kts 162°
2026-05-07 11:51 60.57100 10.66243 7967 ft 176 kts 162°
2026-05-07 11:51 60.55955 10.67088 7975 ft 175 kts 161°
2026-05-07 11:51 60.54814 10.67905 7971 ft 173 kts 162°
2026-05-07 11:51 60.53698 10.68691 7974 ft 171 kts 161°
2026-05-07 11:52 60.52570 10.69511 7981 ft 173 kts 161°
2026-05-07 11:52 60.51429 10.70327 7977 ft 173 kts 161°
2026-05-07 11:52 60.50292 10.71158 7978 ft 174 kts 161°
2026-05-07 11:52 60.49151 10.71991 7982 ft 173 kts 162°
2026-05-07 11:53 60.48013 10.72805 7977 ft 173 kts 161°
2026-05-07 11:53 60.46883 10.73608 7974 ft 172 kts 162°
2026-05-07 11:53 60.45758 10.74416 7975 ft 172 kts 161°
2026-05-07 11:53 60.44634 10.75229 7974 ft 171 kts 161°
2026-05-07 11:54 60.43525 10.76025 7971 ft 171 kts 162°
2026-05-07 11:54 60.42403 10.76830 7973 ft 173 kts 161°
2026-05-07 11:54 60.41263 10.77646 7973 ft 174 kts 163°
2026-05-07 11:54 60.40123 10.78456 7972 ft 173 kts 162°
2026-05-07 11:55 60.38982 10.79273 7973 ft 174 kts 161°
2026-05-07 11:55 60.37843 10.80094 7978 ft 175 kts 163°
2026-05-07 11:55 60.36696 10.80893 7971 ft 173 kts 161°
2026-05-07 11:55 60.35567 10.81724 7975 ft 173 kts 161°
2026-05-07 11:56 60.34447 10.82524 7973 ft 173 kts 161°
2026-05-07 11:56 60.33312 10.83331 7972 ft 173 kts 161°
2026-05-07 11:56 60.32183 10.84139 7971 ft 172 kts 161°
2026-05-07 11:56 60.31056 10.84937 7972 ft 172 kts 161°
2026-05-07 11:57 60.29927 10.85742 7969 ft 172 kts 162°
2026-05-07 11:57 60.28799 10.86534 7973 ft 171 kts 161°
2026-05-07 11:57 60.27674 10.87336 7971 ft 172 kts 161°
2026-05-07 11:57 60.26544 10.88145 7976 ft 173 kts 161°
2026-05-07 11:58 60.25424 10.88936 7973 ft 173 kts 161°
2026-05-07 11:58 60.24292 10.89737 7974 ft 172 kts 161°
2026-05-07 11:58 60.23162 10.90545 7972 ft 172 kts 161°
2026-05-07 11:58 60.22029 10.91344 7973 ft 172 kts 161°
2026-05-07 11:59 60.20898 10.92135 7973 ft 172 kts 161°
2026-05-07 11:59 60.19765 10.92941 7969 ft 173 kts 161°
2026-05-07 11:59 60.18632 10.93747 7971 ft 173 kts 162°
2026-05-07 11:59 60.17497 10.94541 7972 ft 174 kts 161°
2026-05-07 12:00 60.16377 10.95340 7974 ft 173 kts 161°
2026-05-07 12:00 60.15241 10.96132 7973 ft 173 kts 161°
2026-05-07 12:00 60.14106 10.96930 7975 ft 173 kts 161°
2026-05-07 12:00 60.12967 10.97731 7977 ft 173 kts 161°
2026-05-07 12:01 60.11832 10.98533 7974 ft 173 kts 161°
2026-05-07 12:01 60.10690 10.99335 7969 ft 173 kts 161°
2026-05-07 12:01 60.09551 11.00123 7973 ft 174 kts 162°
2026-05-07 12:01 60.08407 11.00918 7973 ft 173 kts 161°
2026-05-07 12:02 60.07274 11.01737 7977 ft 173 kts 161°
2026-05-07 12:02 60.06152 11.02527 7968 ft 174 kts 162°
2026-05-07 12:02 60.05013 11.03316 7971 ft 173 kts 162°
2026-05-07 12:02 60.03881 11.04110 7974 ft 173 kts 161°
2026-05-07 12:03 60.02739 11.04915 7976 ft 174 kts 161°
2026-05-07 12:03 60.01602 11.05714 7977 ft 173 kts 162°
2026-05-07 12:03 60.00460 11.06490 7969 ft 174 kts 162°
2026-05-07 12:03 59.99322 11.07286 7978 ft 174 kts 161°
2026-05-07 12:04 59.98172 11.08090 7975 ft 175 kts 162°
2026-05-07 12:04 59.97032 11.08884 7967 ft 176 kts 161°
2026-05-07 12:04 59.95877 11.09688 7985 ft 176 kts 162°
2026-05-07 12:04 59.94722 11.10491 7978 ft 176 kts 161°
2026-05-07 12:05 59.93558 11.11306 7969 ft 177 kts 162°
2026-05-07 12:05 59.92398 11.12111 7977 ft 176 kts 162°
2026-05-07 12:05 59.91243 11.12911 7985 ft 176 kts 162°
2026-05-07 12:05 59.90091 11.13710 7984 ft 175 kts 161°
2026-05-07 12:06 59.88945 11.14504 7975 ft 175 kts 162°
2026-05-07 12:06 59.87793 11.15302 7976 ft 174 kts 162°
2026-05-07 12:06 59.86663 11.16083 7977 ft 174 kts 162°
2026-05-07 12:06 59.85521 11.16873 7971 ft 174 kts 162°
2026-05-07 12:07 59.84379 11.17661 7977 ft 174 kts 162°
2026-05-07 12:07 59.83242 11.18446 7975 ft 173 kts 162°
2026-05-07 12:07 59.82101 11.19233 7983 ft 173 kts 162°
2026-05-07 12:07 59.80963 11.20017 7978 ft 174 kts 162°
2026-05-07 12:08 59.79824 11.20801 7980 ft 173 kts 162°
2026-05-07 12:08 59.78681 11.21590 7910 ft 177 kts 161°
2026-05-07 12:08 59.77513 11.22396 7708 ft 184 kts 162°
2026-05-07 12:08 59.76294 11.23236 7503 ft 186 kts 161°
2026-05-07 12:09 59.75072 11.24076 7294 ft 186 kts 161°
2026-05-07 12:09 59.73842 11.24924 7089 ft 187 kts 161°
2026-05-07 12:09 59.72618 11.25763 6883 ft 186 kts 161°
2026-05-07 12:09 59.71392 11.26601 6681 ft 186 kts 161°
2026-05-07 12:10 59.70172 11.27438 6469 ft 185 kts 160°
2026-05-07 12:10 59.68965 11.28281 6254 ft 184 kts 160°
2026-05-07 12:10 59.67757 11.29099 6046 ft 184 kts 161°
2026-05-07 12:10 59.66543 11.29915 5827 ft 184 kts 160°
2026-05-07 12:11 59.65351 11.30736 5607 ft 184 kts 160°
2026-05-07 12:11 59.64139 11.31558 5396 ft 184 kts 161°
2026-05-07 12:11 59.62928 11.32389 5185 ft 184 kts 160°
2026-05-07 12:11 59.61719 11.33215 4969 ft 179 kts 161°
2026-05-07 12:12 59.60608 11.33934 4743 ft 162 kts 161°
2026-05-07 12:12 59.59550 11.34651 4505 ft 160 kts 161°
2026-05-07 12:12 59.58494 11.35373 4310 ft 162 kts 160°
2026-05-07 12:12 59.57420 11.36112 4088 ft 165 kts 162°
2026-05-07 12:13 59.56358 11.36800 4051 ft 156 kts 161°
2026-05-07 12:13 59.55350 11.37513 4036 ft 152 kts 161°
2026-05-07 12:13 59.54375 11.38167 4052 ft 147 kts 162°
2026-05-07 12:13 59.53407 11.38790 4039 ft 146 kts 162°
2026-05-07 12:14 59.52462 11.39439 4055 ft 143 kts 160°
2026-05-07 12:14 59.51512 11.40115 4048 ft 147 kts 162°
2026-05-07 12:14 59.50543 11.40753 4045 ft 147 kts 163°
2026-05-07 12:14 59.49572 11.41394 4039 ft 148 kts 162°
2026-05-07 12:15 59.48602 11.42078 4041 ft 148 kts 160°
2026-05-07 12:15 59.47636 11.42718 4043 ft 146 kts 162°
2026-05-07 12:15 59.46694 11.43338 4049 ft 145 kts 161°
2026-05-07 12:15 59.45746 11.43987 4042 ft 143 kts 161°
2026-05-07 12:16 59.44795 11.44611 4015 ft 149 kts 161°
2026-05-07 12:16 59.43807 11.45292 3898 ft 153 kts 160°
2026-05-07 12:16 59.42769 11.45825 3721 ft 156 kts 176°
2026-05-07 12:16 59.41685 11.45942 3555 ft 157 kts 166°
2026-05-07 12:17 59.40639 11.46503 3395 ft 155 kts 165°
2026-05-07 12:17 59.39593 11.47040 3240 ft 156 kts 165°
2026-05-07 12:17 59.38537 11.47647 3073 ft 161 kts 164°
2026-05-07 12:17 59.37487 11.48216 3038 ft 154 kts 165°
2026-05-07 12:18 59.36482 11.48746 3054 ft 145 kts 166°
2026-05-07 12:18 59.35505 11.49230 3037 ft 141 kts 167°
2026-05-07 12:18 59.34577 11.49697 3045 ft 135 kts 166°
2026-05-07 12:18 59.33666 11.50102 3037 ft 136 kts 171°
2026-05-07 12:19 59.32754 11.50468 3045 ft 132 kts 164°
2026-05-07 12:19 59.31843 11.50579 3031 ft 136 kts 205°
2026-05-07 12:19 59.31277 11.49298 3048 ft 127 kts 257°
2026-05-07 12:19 59.31269 11.47556 3066 ft 127 kts 272°
2026-05-07 12:20 59.31291 11.45865 3062 ft 125 kts 271°
2026-05-07 12:20 59.31315 11.44088 2857 ft 133 kts 274°
2026-05-07 12:20 59.31746 11.42583 2608 ft 131 kts 322°
2026-05-07 12:20 59.32504 11.41629 2421 ft 129 kts 323°
2026-05-07 12:21 59.33277 11.40687 2210 ft 132 kts 330°
2026-05-07 12:21 59.34110 11.40005 2001 ft 125 kts 338°
2026-05-07 12:21 59.34853 11.39469 1780 ft 107 kts 335°
2026-05-07 12:21 59.35518 11.38984 1580 ft 91 kts 336°
2026-05-07 12:22 59.36062 11.38611 1398 ft 80 kts 332°
2026-05-07 12:22 59.36555 11.38133 1235 ft 82 kts 327°
2026-05-07 12:22 59.37039 11.37598 1082 ft 74 kts 327°
2026-05-07 12:22 59.37480 11.37113 895 ft 74 kts 327°
2026-05-07 12:23 59.37923 11.36640 798 ft 74 kts 329°
2026-05-07 12:23 59.38377 11.36170 706 ft 73 kts 324°
2026-05-07 12:23 59.38827 11.35675 585 ft 73 kts 325°
2026-05-07 12:23 59.39258 11.35208 418 ft 70 kts 328°
2026-05-07 12:24 59.39618 11.34816 374 ft 48 kts 322°
2026-05-07 12:24 59.39830 11.34596 364 ft 14 kts 329°
2026-05-07 12:24 59.39907 11.34494 356 ft 12 kts 271°
2026-05-07 12:24 59.39882 11.34462 359 ft 9 kts 150°
2026-05-07 12:25 59.39879 11.34465 359 ft 0 kts 150°
2026-05-07 12:26 59.39863 11.34483 361 ft 9 kts 151°
2026-05-07 12:26 59.39814 11.34508 363 ft 8 kts 224°
2026-05-07 12:26 59.39817 11.34492 362 ft 0 kts 328°